アトラス彗星

C/2021 K1 ( ATLAS )

English version
Home page
Updated on February 5, 2022

---------------------------------------------------------------------

・ プロフィール

発見日 2021年5月14日
発見光度 16.5等
発見者 Asteroid Terrestrial-Impact Last Alert System (ATLAS) search program

・ 写真集

・ 軌道要素

Epoch 2022 Jan. 21.0 TT = JDT 2459600.5
T 2021 May 4.49022 TT                                   Rudenko
q   2.4976464            (2000.0)            P               Q
n   0.02175314     Peri.  184.28423     +0.81914957     +0.54567204
a  12.7092945      Node   140.90456     -0.51757046     +0.83600064
e   0.8034788      Incl.   16.27584     -0.24721408     +0.05783559
P  45.3
From 674 observations 2020 Apr. 20-2022 Jan. 31, mean residual 0".5.

・ 星図

・ 光度変化

        m1 = 5.0 + 5 logΔ + 22.0 log r(t - 90)

---------------------------------------------------------------------

軌道要素はM.P.E.C. 2022-C56に掲載されたものです。
星図はステラナビゲータ Ver.10 (アストロアーツ) で作成したものです。
光度グラフはComet for Windowsで作成したものです。

---------------------------------------------------------------------

Copyright(C) Seiichi Yoshida (comet@aerith.net). All rights reserved.